| time (UTC) | temp C | wind direction | speed KPH | gust KPH | rain 1hr cm | rain 24hr cm | rain mn cm | humidity % | barometer mb |
| 20260504081601 | 7 | 0 | 0.0 | 0.0 | 0.00 | 0.00 | 0.00 | 85 | 1017.6 |
| 20260504060123 | 8 | 0 | 0.0 | 0.0 | 0.00 | 0.00 | 0.00 | 82 | 1018.1 |
| 20260504050114 | 10 | 0 | 0.0 | 0.0 | 0.00 | 0.00 | 0.00 | 77 | 1018.0 |
| 20260504044555 | 10 | 0 | 0.0 | 0.0 | 0.00 | 0.00 | 0.00 | 77 | 1017.7 |
| 20260504043108 | 10 | 0 | 0.0 | 0.0 | 0.00 | 0.00 | 0.00 | 75 | 1017.6 |
| 20260504041557 | 11 | 0 | 0.0 | 0.0 | 0.00 | 0.00 | 0.00 | 75 | 1017.8 |
| 20260504040059 | 11 | 0 | 0.0 | 0.0 | 0.00 | 0.00 | 0.00 | 72 | 1017.8 |
| 20260504034600 | 11 | 0 | 0.0 | 0.0 | 0.00 | 0.00 | 0.00 | 74 | 1017.8 |
| 20260504033059 | 11 | 0 | 0.0 | 1.6 | 0.00 | 0.00 | 0.00 | 70 | 1017.7 |
| 20260504031604 | 12 | 0 | 0.0 | 3.2 | 0.00 | 0.00 | 0.00 | 70 | 1017.7 |
| 20260504030056 | 12 | 0 | 0.0 | 0.0 | 0.00 | 0.00 | 0.00 | 73 | 1017.6 |
| 20260504024557 | 12 | 0 | 0.0 | 0.0 | 0.00 | 0.00 | 0.00 | 70 | 1017.6 |
| 20260504023058 | 12 | 0 | 0.0 | 0.0 | 0.00 | 0.00 | 0.00 | 76 | 1017.4 |
| 20260504021557 | 12 | 0 | 0.0 | 0.0 | 0.00 | 0.00 | 0.00 | 78 | 1017.4 |
| 20260504020058 | 12 | 0 | 0.0 | 0.0 | 0.00 | 0.00 | 0.00 | 75 | 1017.3 |
| 20260504014603 | 12 | 0 | 0.0 | 0.0 | 0.00 | 0.00 | 0.00 | 72 | 1017.0 |
| 20260504013110 | 13 | 0 | 0.0 | 0.0 | 0.00 | 0.00 | 0.00 | 72 | 1016.8 |
| 20260504011555 | 14 | 0 | 0.0 | 0.0 | 0.00 | 0.00 | 0.00 | 69 | 1016.7 |
| 20260504010112 | 15 | 0 | 0.0 | 0.0 | 0.00 | 0.00 | 0.00 | 66 | 1016.7 |
| 20260504004557 | 15 | 0 | 0.0 | 0.0 | 0.00 | 0.00 | 0.00 | 63 | 1016.5 |
| 20260504003056 | 16 | 0 | 0.0 | 0.0 | 0.00 | 0.00 | 0.00 | 62 | 1016.4 |
| 20260504001602 | 17 | 0 | 0.0 | 0.0 | 0.00 | 0.00 | 0.00 | 56 | 1016.2 |
| 20260504000059 | 17 | 0 | 0.0 | 0.0 | 0.00 | 0.00 | 0.00 | 49 | 1016.2 |
| 20260503234554 | 18 | 215 | 0.0 | 1.6 | 0.00 | 0.00 | 0.00 | 48 | 1016.2 |
| 20260503233102 | 18 | 0 | 0.0 | 3.2 | 0.00 | 0.00 | 0.00 | 47 | 1016.2 |
| 20260503231556 | 18 | 0 | 0.0 | 4.8 | 0.00 | 0.00 | 0.00 | 45 | 1016.1 |
| 20260503230056 | 19 | 0 | 1.6 | 8.0 | 0.00 | 0.00 | 0.00 | 43 | 1016.2 |
| 20260503224554 | 20 | 0 | 0.0 | 4.8 | 0.00 | 0.00 | 0.00 | 42 | 1016.4 |
| 20260503223055 | 20 | 200 | 0.0 | 6.4 | 0.00 | 0.00 | 0.00 | 43 | 1016.3 |
| 20260503221600 | 20 | 0 | 0.0 | 4.8 | 0.00 | 0.00 | 0.00 | 42 | 1016.4 |
| 20260503220105 | 20 | 242 | 0.0 | 11.3 | 0.00 | 0.00 | 0.00 | 42 | 1016.4 |
| 20260503214558 | 20 | 0 | 0.0 | 4.8 | 0.00 | 0.00 | 0.00 | 44 | 1016.5 |
| 20260503213057 | 20 | 93 | 0.0 | 4.8 | 0.00 | 0.00 | 0.00 | 43 | 1016.7 |
| 20260503211557 | 20 | 0 | 1.6 | 6.4 | 0.00 | 0.00 | 0.00 | 43 | 1017.0 |
| 20260503210059 | 20 | 310 | 1.6 | 14.5 | 0.00 | 0.00 | 0.00 | 43 | 1017.0 |
| 20260503204607 | 20 | 0 | 1.6 | 6.4 | 0.00 | 0.00 | 0.00 | 41 | 1017.1 |
| 20260503203101 | 20 | 0 | 0.0 | 6.4 | 0.00 | 0.00 | 0.00 | 42 | 1017.4 |
| 20260503201558 | 21 | 172 | 1.6 | 9.7 | 0.00 | 0.00 | 0.00 | 41 | 1017.8 |
| 20260503200057 | 21 | 195 | 1.6 | 6.4 | 0.00 | 0.00 | 0.00 | 40 | 1018.2 |
| 20260503194622 | 21 | 0 | 1.6 | 6.4 | 0.00 | 0.00 | 0.00 | 39 | 1018.5 |
| 20260503193055 | 21 | 249 | 0.0 | 9.7 | 0.00 | 0.00 | 0.00 | 42 | 1018.8 |
| 20260503191602 | 21 | 0 | 3.2 | 6.4 | 0.00 | 0.00 | 0.00 | 37 | 1019.0 |
| 20260503190101 | 22 | 76 | 1.6 | 6.4 | 0.00 | 0.00 | 0.00 | 38 | 1019.4 |
| 20260503184559 | 22 | 128 | 1.6 | 9.7 | 0.00 | 0.00 | 0.00 | 40 | 1019.6 |
| 20260503183105 | 22 | 284 | 0.0 | 6.4 | 0.00 | 0.00 | 0.00 | 37 | 1019.8 |
| 20260503181556 | 21 | 253 | 3.2 | 9.7 | 0.00 | 0.00 | 0.00 | 35 | 1019.8 |
| 20260503180106 | 21 | 346 | 1.6 | 8.0 | 0.00 | 0.00 | 0.00 | 40 | 1019.9 |
| 20260503174555 | 20 | 214 | 1.6 | 6.4 | 0.00 | 0.00 | 0.00 | 41 | 1019.9 |
| 20260503173147 | 20 | 355 | 1.6 | 9.7 | 0.00 | 0.00 | 0.00 | 41 | 1020.2 |
| 20260503171556 | 20 | 173 | 1.6 | 11.3 | 0.00 | 0.00 | 0.00 | 48 | 1020.4 |